Погода в Старой Водолаге

Украина / Харьковская область     49°47′23″N   35°50′03″E
темп.,
°C
ветер,
м/с
пор.,
м/с
влажн.,
%
обл.,
%
осадки,
мм/ч
давл.,
гПа
погр.,
м
14 мая, пт
пт1400:00+11в476970 0.0 101392
03:00+12в368974 0.0 1012119
06:00+12в3991100 0.0 1011206
09:00+18вюв61075100 0.8 1010597
12:00+21ююв8963100 0.0 10101031
15:00+23ю6856100 0.0 10091428
18:00+22ююв4867100 0.0 1009381
21:00+16юз4777100 0.1 101098
15 мая, сб
сб1500:00+14юз2282100 0.0 101016
03:00+13ююз3588100 0.0 101179
06:00+12ююз378884 0.0 1012162
09:00+18ююз47660 0.0 1012518
12:00+21юз57515 0.0 10131730
15:00+23юз574697 0.0 10122261
18:00+20юз346488 0.0 101287
21:00+16ююз127355 0.0 101311
16 мая, вс
вс1600:00+17юз226746 0.0 101325
03:00+14юз117442 0.0 101311
06:00+15вюв227680 0.0 101326
09:00+20вюв125712 0.0 1014394
12:00+24в2348100 0.0 10131447
15:00+25в3445100 0.0 10121828
18:00+24в465953 0.0 1010563
21:00+18св49765 0.1 1010145
17 мая, пн
пн1700:00+17св4982100 0.0 1009181
03:00+15св3788100 0.0 1008117
06:00+15всв498385 0.0 1006193
09:00+21вюв6961100 0.0 1006444
12:00+22вюв61057100 0.0 1005754
15:00+25ююв6748100 0.0 10051324
18:00+24юв476277 0.0 1004828
21:00+18ююз22875 1.3 100631
18 мая, вт
вт1800:00+17ююз3490100 0.1 100666
03:00+15зсз369783 0.6 1007154
06:00+15зсз369799 0.0 1008241
09:00+19зюз337652 0.0 1009596
12:00+22зюз3461100 0.0 10101173
15:00+23юз455899 1.3 10091483
18:00+21юз457097 2.3 1010933
21:00+17вюв11809 2.9 101011